Content
SEND FEEDBACK

Daily
Averages
Monthly
Summary
Canada

CORNER BROOK, NEWFOUNDLAND


Home > North America > Canada > Newfoundland
Elevation: 16 feet     Latitude: 48 57N     Longitude: 057 57W

WEATHER
 
SELECT A DAY
Number of Records: 181,482;   Date Range: 1/1/95 - 9/19/14
 
SHARE

PRINT THIS DATA

[ ← Previous Day ]
WEATHER ALMANAC - MARCH 28, 2013
[ Next Day → ]
[ °C ]   °F
Weather ElementAverageHighLow
Temperature37.6 °F41 °F (11:30 am)33.8 °F (9:30 pm)
Dewpoint23.8 °F28.4 °F (2:30 am)21 °F (9:30 pm)
Humidity56.3 %75 % (2:30 am)38 % (3:30 pm)
Barometer29.62 in29.64 in (2:30 am)29.59 in (11:30 pm)
Wind Speed9.5 mph13.8 mph (11:30 am)
Wind Gust27.6 mph (10:30 am)
Weather ElementAverage
Visibility14.8 mi
Wind DirectionW (272.3 °)

Weather ElementTotal
Precipitation---
Heating Degree Days27.6 (Base 65)
Averaged from 26 records on March 28, 2013
WEATHER CONDITIONS BREAKOUT
WIND DIRECTION BREAKOUT
WEATHER BY HOUR - MARCH 28, 2013
[ °C ]   °F
Local TimeTemperatureDewpointHumidityBarometerVisibilityWind DirectionWind SpeedGust SpeedPrecipitationEventsConditions
2:30 AM35.6 °F28.4 °F75 %29.64 in15.0 miNorth (10°)5.8 mphOvercast
3:30 AM36.0 °F28.0 °F61 %29.63 in15.0 miNNW (340°)4.6 mphOvercast
3:30 AM35.6 °F26.6 °F70 %29.63 in15.0 miNorth (360°)6.9 mphOvercast
4:30 AM35.6 °F26.6 °F70 %29.63 in15.0 miNorth (360°)8.1 mphOvercast
5:30 AM35.6 °F26.6 °F70 %29.63 in15.0 miNNE (20°)5.8 mph18.4 mphOvercast
6:30 AM35.6 °F24.8 °F65 %29.64 in10.0 miNNE (20°)8.1 mphSnowLight Snow Showers
7:30 AM35.6 °F24.8 °F65 %29.63 in15.0 miNorth (360°)10.4 mph18.4 mphOvercast
8:30 AM37.4 °F24.8 °F60 %29.63 in15.0 miNNW (340°)9.2 mphMostly Cloudy
9:30 AM38.0 °F25.0 °F47 %29.63 in15.0 miNorth (350°)12.7 mphPartly Cloudy
9:30 AM37.4 °F24.8 °F60 %29.63 in15.0 miNorth (360°)10.4 mph23.0 mphMostly Cloudy
10:30 AM39.2 °F24.8 °F56 %29.63 in15.0 miNorth (10°)10.4 mph27.6 mphMostly Cloudy
11:30 AM41.0 °F23.0 °F49 %29.62 in15.0 miNorth (360°)13.8 mph23.0 mphMostly Cloudy
12:30 PM41.0 °F23.0 °F49 %29.61 in15.0 miNorth (350°)12.7 mph20.7 mphMostly Cloudy
1:30 PM41.0 °F23.0 °F49 %29.60 in15.0 miNorth (350°)11.5 mph21.9 mphMostly Cloudy
2:30 PM41.0 °F23.0 °F49 %29.60 in15.0 miNNW (330°)11.5 mph21.9 mphMostly Cloudy
3:30 PM41.0 °F24.0 °F38 %29.60 in15.0 miNW (320°)13.8 mphMostly Cloudy
3:30 PM41.0 °F24.8 °F53 %29.60 in15.0 miNW (310°)12.7 mph24.2 mphMostly Cloudy
4:30 PM41.0 °F23.0 °F49 %29.60 in15.0 miNorth (350°)11.5 mph20.7 mphScattered Clouds
5:30 PM41.0 °F21.2 °F45 %29.60 in15.0 miNW (320°)11.5 mph18.4 mphScattered Clouds
6:30 PM39.2 °F21.2 °F49 %29.60 in15.0 miNNE (20°)11.5 mph19.6 mphScattered Clouds
7:30 PM37.4 °F21.2 °F52 %29.61 in15.0 miWNW (300°)9.2 mphScattered Clouds
8:30 PM35.6 °F21.2 °F56 %29.61 in15.0 miNW (320°)10.4 mphScattered Clouds
9:30 PM34.0 °F21.0 °F47 %29.61 in15.0 miWNW (300°)5.8 mphScattered Clouds
9:30 PM33.8 °F21.2 °F60 %29.61 in15.0 miNW (310°)6.9 mphScattered Clouds
10:30 PM33.8 °F21.2 °F60 %29.61 in15.0 miWNW (300°)5.8 mphMostly Cloudy
11:30 PM33.8 °F21.2 °F60 %29.59 in15.0 miNW (310°)6.9 mphMostly Cloudy
Hourly data recorded from CYDF, located miles away from Corner Brook, Newfoundland







STORIES FROM OUR PARTNERS